Wind_Speed
5 4 3 1 4 6 6 5 6 4 2 3 3 2 4 4 5 6 6 7 2 1 5 4 4 6 7 8 10 17 18 14 16 17 16 14 9 8 12 16 20 20 19 21 21 20 20 23 29 34 39 42 41 40 40 39 39 39 39 39 40 39 39 38 35 35 36 36 38 41 42 41 39 36 34 34 34 33 33 31 32 32 32 31 30 29
5 4 1 4 6 7 6 5 5 3 1 2 2 2 3 3 5 6 5 6 3 1 5 5 6 7 7 8 10 13 11 9 11 11 14 17 13 12 12 16 20 19 18 19 21 21 21 22 26 31 35 38 39 39 39 39 39 40 40 40 39 38 39 39 36 36 37 37 39 42 43 41 39 36 35 35 34 33 32 31 32 32 32 31 31 30
5 1 5 5 5 5 3 3 3 2 1 2 1 1 2 3 3 5 5 5 3 1 4 6 6 7 8 9 10 11 9 9 11 11 15 19 17 15 13 15 18 17 18 19 20 21 21 22 25 28 32 35 37 38 38 39 39 39 41 43 40 35 37 39 38 38 39 38 39 41 41 40 39 36 35 34 31 31 31 31 31 31 31 31 31 30
3 4 6 4 5 5 4 3 4 3 2 1 1 1 3 3 1 3 5 5 4 2 3 5 6 6 6 7 8 10 10 10 14 16 18 19 18 16 14 15 15 15 18 19 20 20 19 20 23 26 29 33 36 36 36 38 39 39 42 44 42 36 37 42 42 41 39 37 38 39 39 38 36 33 32 31 30 30 31 32 32 32 32 31 30 29
4 7 5 5 5 5 4 6 5 3 4 3 3 3 3 4 2 4 3 5 5 3 2 4 7 6 3 4 5 6 6 8 14 17 18 20 18 17 15 14 14 15 18 20 21 20 20 20 19 24 28 30 35 38 38 39 40 40 41 44 43 38 38 42 44 42 37 35 37 37 35 34 33 33 32 33 32 32 32 33 34 33 32 31 29 29
4 4 3 5 5 5 3 4 3 2 2 4 3 4 5 4 4 4 4 4 4 4 3 5 5 6 4 4 5 5 5 8 10 11 15 21 20 19 17 15 18 20 20 22 22 21 21 21 18 19 25 28 33 38 41 41 41 41 41 43 42 38 37 38 40 38 34 35 38 38 37 35 37 38 35 35 35 33 34 34 33 33 32 31 29 29
3 3 4 4 3 5 4 2 3 1 3 3 3 3 3 1 1 3 3 3 2 3 4 2 1 6 6 3 4 4 5 7 9 8 12 20 21 20 19 19 23 24 22 23 23 21 20 20 18 16 20 27 31 35 40 40 40 40 41 43 42 39 38 34 32 33 34 37 41 43 42 40 42 42 37 35 34 32 33 33 32 31 31 30 30 30
4 6 6 5 4 5 5 3 4 1 3 1 5 2 1 3 4 4 1 1 3 2 4 0 4 3 7 3 1 2 5 7 8 8 10 15 20 21 23 24 23 23 23 23 23 21 18 18 17 15 17 23 29 32 36 38 38 39 40 41 41 39 36 30 28 33 37 41 43 45 46 43 41 40 36 34 32 30 31 32 31 31 31 30 31 31
3 4 4 4 4 4 3 5 6 2 1 4 5 3 2 2 4 5 2 3 2 2 4 4 2 1 6 2 4 4 4 6 8 8 8 13 20 24 26 26 23 22 23 22 22 22 19 17 16 15 15 18 23 28 32 35 36 37 38 40 39 37 35 30 29 35 39 41 43 43 45 44 39 37 35 32 28 28 30 32 33 32 31 31 31 31
3 4 3 2 3 2 3 6 5 2 1 4 3 3 3 1 2 1 1 2 1 2 4 4 2 1 5 3 4 4 4 5 8 8 8 13 21 26 27 28 26 24 22 20 20 21 20 17 15 15 15 15 18 22 28 33 36 36 37 39 39 38 37 34 32 37 40 41 43 43 44 42 38 37 38 34 30 30 32 33 34 34 33 32 31 31
6 4 2 2 2 1 3 5 2 3 1 2 3 4 4 3 4 3 2 2 3 2 4 4 2 1 3 4 2 1 3 6 7 8 10 15 23 28 30 31 31 28 24 21 20 19 18 16 14 15 16 16 16 18 23 30 35 36 37 40 42 41 40 37 36 36 39 42 44 45 44 42 37 36 38 37 34 33 34 36 36 34 33 33 32 32
7 3 1 2 1 2 2 3 3 1 2 3 3 3 3 4 4 3 4 3 3 2 4 4 3 1 2 5 4 5 7 7 6 8 11 15 22 29 32 33 33 31 27 21 19 19 17 15 13 14 16 17 17 19 22 27 33 37 39 41 43 43 41 40 39 37 38 42 44 45 46 43 39 36 37 38 36 35 35 35 35 35 33 32 33 32
5 1 4 4 1 5 4 3 4 4 4 5 3 4 3 3 4 3 4 2 1 2 4 3 3 1 4 6 7 9 10 7 7 10 13 16 22 29 29 27 28 27 25 23 21 21 19 17 15 12 14 17 18 20 22 26 31 37 41 42 42 42 41 42 42 40 40 43 45 45 46 45 42 40 40 40 38 36 36 34 34 34 34 33 34 34
4 4 6 4 2 6 6 3 5 4 4 6 2 3 3 2 3 2 2 2 2 4 3 2 2 2 4 5 6 7 7 9 12 16 19 20 22 25 24 23 26 28 27 27 26 25 25 23 21 17 14 16 19 21 23 25 28 35 41 43 43 42 42 44 45 42 42 45 46 45 46 47 46 45 43 40 38 39 40 38 35 34 33 33 34 34
3 5 4 3 3 6 6 3 3 4 4 4 1 3 2 2 1 2 2 1 3 4 3 2 1 1 2 4 4 5 8 11 15 18 20 21 22 24 25 27 31 32 29 29 29 28 28 28 26 23 20 16 19 21 24 26 27 31 38 42 42 42 42 44 45 44 45 48 49 47 47 50 50 48 44 40 37 39 41 40 40 39 35 33 33 33
1 4 4 3 4 3 4 5 4 2 3 2 1 2 1 1 2 0 1 2 2 3 3 2 2 3 4 5 6 8 9 12 18 22 24 26 29 30 30 32 35 35 34 33 33 32 30 30 29 26 25 21 19 22 25 26 27 29 34 39 40 39 40 42 44 44 46 49 51 50 49 51 53 51 47 43 40 41 41 40 42 41 36 33 34 33
2 4 5 5 5 1 3 4 5 5 2 2 1 2 1 2 3 1 1 1 1 2 3 2 2 4 3 3 5 10 13 15 18 23 26 29 32 33 30 31 35 37 37 36 35 34 31 30 30 28 26 25 21 20 25 28 28 29 32 36 37 36 37 41 43 45 47 50 52 51 48 48 51 52 50 47 44 43 42 42 43 41 38 36 36 34
1 4 5 3 3 3 3 3 8 8 4 1 1 3 2 1 2 1 1 1 1 2 3 2 3 4 2 2 7 14 17 18 18 20 23 27 31 32 33 34 34 36 39 38 36 34 32 30 30 29 28 26 24 20 23 28 29 30 31 34 36 35 37 40 43 45 48 50 52 52 48 45 48 52 52 49 46 44 44 45 45 43 41 40 37 35
2 3 6 2 2 4 4 4 4 7 7 4 1 2 2 1 1 1 0 2 1 2 4 3 2 2 0 1 8 14 15 17 19 18 18 21 25 29 34 37 37 38 40 40 39 36 34 32 29 29 29 27 25 21 19 24 27 29 31 33 36 36 37 40 43 46 49 52 52 51 49 48 50 52 51 48 46 45 46 47 46 44 43 42 40 38
2 1 4 3 3 4 4 3 1 4 5 3 1 2 1 1 1 0 0 1 0 2 3 3 2 2 0 2 8 12 14 15 17 18 16 18 23 27 30 35 36 37 38 40 40 38 36 34 31 28 28 27 26 23 16 16 19 24 27 30 34 37 38 42 45 47 49 51 51 49 49 50 51 51 51 50 49 48 47 48 48 46 44 43 42 40
2 2 3 5 6 4 2 1 2 1 2 3 3 2 2 1 0 1 1 0 0 1 1 2 3 2 0 3 8 12 14 14 15 16 15 19 26 28 29 32 34 35 36 38 39 38 36 35 32 28 26 25 24 23 17 12 13 15 20 24 29 34 39 42 45 47 48 48 46 46 48 49 47 44 43 44 46 47 48 48 48 46 44 44 44 42
2 2 2 4 5 2 2 2 2 3 2 1 0 1 3 3 1 2 2 1 0 1 2 1 3 2 1 2 7 10 10 13 18 18 17 22 28 29 30 32 33 34 35 36 37 37 35 34 32 29 26 24 22 22 20 13 11 13 15 18 23 29 35 38 41 45 47 48 47 46 46 46 45 43 39 36 35 36 40 43 44 44 43 43 44 44
2 3 1 3 5 4 3 2 1 1 2 1 1 1 2 2 1 2 2 1 1 1 2 1 2 3 3 2 4 6 8 15 21 22 21 24 27 29 31 33 34 34 33 34 35 35 34 33 32 30 27 25 22 20 20 17 10 11 14 17 21 24 29 33 37 39 43 46 49 48 44 42 41 41 42 40 35 32 32 35 38 40 41 42 43 45
2 2 1 3 5 3 3 3 3 2 1 2 1 2 3 3 3 3 3 1 1 2 1 1 1 4 4 3 4 6 10 15 18 21 24 26 28 30 31 31 33 35 34 33 34 34 32 31 30 29 27 25 23 19 17 19 15 8 10 16 21 23 26 29 32 36 39 42 44 46 45 42 39 39 41 43 42 39 38 39 40 40 41 42 43 45
1 0 1 2 4 3 3 3 3 3 2 2 3 4 4 5 7 4 2 1 1 2 2 1 2 4 2 2 7 9 10 12 14 19 24 26 27 29 28 29 31 33 34 34 34 35 32 30 29 28 27 26 24 21 17 16 16 13 7 8 15 21 24 28 31 35 38 40 40 41 41 41 39 38 38 38 39 39 40 44 44 42 41 42 43 45
1 1 2 1 2 2 2 3 2 3 3 2 3 4 5 6 8 5 1 1 1 2 3 2 2 6 6 6 10 12 10 11 14 18 22 25 28 28 27 27 29 31 33 33 34 35 33 31 29 28 27 26 24 21 18 15 14 14 12 7 6 12 17 23 29 33 35 37 38 38 38 39 39 38 37 36 36 35 36 41 44 42 41 41 43 45
2 1 1 3 3 3 4 4 2 0 1 2 4 5 5 5 6 3 1 1 3 4 3 3 4 9 12 12 13 15 14 12 13 17 20 23 28 30 28 27 28 30 32 32 33 35 34 33 30 27 26 26 24 22 19 16 13 13 14 12 7 6 10 15 19 25 30 31 32 33 35 36 36 37 37 36 35 33 32 36 41 42 42 41 40 44
3 2 3 4 6 6 6 6 3 2 3 4 4 5 5 5 5 3 1 2 4 4 3 6 9 10 12 13 13 15 16 12 11 16 19 21 26 30 31 29 30 32 33 33 34 35 35 35 33 29 26 25 25 23 20 17 14 11 11 12 11 8 6 11 14 17 21 25 27 29 31 32 33 34 36 36 35 31 29 32 37 41 42 41 39 42
3 3 3 3 5 7 7 7 5 3 4 4 3 3 5 5 6 4 3 4 4 3 4 9 13 11 10 11 12 14 17 16 14 16 18 21 24 29 32 30 30 33 34 33 35 35 35 36 35 32 27 24 24 24 22 18 15 11 8 8 10 11 7 7 12 15 17 20 24 26 28 30 32 35 36 36 35 33 29 30 35 38 39 39 38 40
3 2 2 2 4 5 4 5 3 3 3 3 4 4 3 5 6 4 4 5 5 5 6 9 13 11 7 9 13 16 21 23 18 15 17 20 23 27 31 30 29 33 34 32 34 36 35 35 36 34 30 25 23 24 23 20 17 14 11 6 6 9 10 7 7 13 17 19 21 23 25 27 31 36 38 37 35 35 32 30 33 36 38 38 38 39
1 2 1 2 3 3 1 1 2 3 4 4 5 4 3 4 5 3 3 5 5 5 6 9 11 8 6 10 15 19 23 24 18 15 16 19 21 26 30 29 28 32 36 34 33 36 36 35 36 36 32 27 23 21 21 20 18 16 14 10 5 5 8 9 8 8 14 19 20 21 21 22 25 31 36 37 34 32 31 31 33 35 38 39 38 38
2 2 1 3 2 3 3 1 4 2 2 1 4 5 4 3 3 3 4 5 4 5 8 9 7 6 8 13 16 17 21 21 18 18 19 20 23 26 30 31 29 31 36 36 35 36 36 36 37 37 34 29 24 20 18 18 18 17 16 14 10 6 6 7 8 8 9 13 18 21 20 21 23 27 33 34 31 28 28 31 33 35 37 38 38 37
3 2 0 1 1 3 2 1 3 2 4 2 4 4 3 2 3 4 5 6 5 4 5 6 5 7 10 12 13 14 16 17 19 20 20 21 25 27 30 32 31 32 35 36 37 38 36 35 38 37 34 30 26 20 17 17 18 17 15 15 14 11 8 6 6 7 8 8 11 18 21 22 24 26 30 30 27 26 28 30 33 35 36 37 36 35
2 3 1 1 2 3 4 4 3 4 1 4 5 4 4 2 3 4 5 7 6 2 2 5 6 8 10 11 12 13 15 18 23 22 19 21 25 27 29 32 32 34 36 37 39 39 37 37 38 35 31 28 25 21 18 18 18 17 15 15 16 16 13 10 8 7 7 7 7 11 16 21 23 24 26 25 25 27 29 30 32 34 35 35 34 32
2 3 2 1 1 2 3 5 5 1 5 6 4 4 4 3 3 4 6 8 5 2 5 7 7 9 11 13 15 17 19 24 24 18 16 23 27 27 28 31 33 35 37 38 40 39 38 38 36 34 32 27 23 20 18 18 19 18 16 14 16 16 15 14 12 10 9 8 7 7 10 14 18 20 21 22 22 25 27 28 29 30 31 31 31 30
4 3 2 1 1 1 2 3 1 4 6 4 5 4 2 0 1 3 5 5 3 1 5 6 7 10 13 16 19 21 24 25 18 11 17 26 30 30 29 30 33 36 37 39 40 40 39 37 34 33 33 27 20 19 18 18 19 20 18 15 15 16 16 16 16 14 13 11 10 10 10 11 13 14 17 20 22 24 26 26 26 26 27 28 28 28
5 3 2 1 2 1 0 1 2 3 4 3 2 2 0 2 2 1 2 3 3 2 4 6 7 10 13 16 21 23 25 21 11 10 23 32 32 32 31 30 33 35 36 38 40 40 40 36 32 31 30 25 20 15 14 16 19 21 20 17 16 16 17 17 18 17 15 14 13 12 12 12 13 13 14 16 20 23 26 26 26 25 26 27 27 26
4 3 3 2 1 2 2 2 3 3 3 4 5 5 4 6 6 4 2 3 3 4 8 7 7 10 12 15 20 22 20 13 6 11 27 34 33 34 33 31 32 34 35 37 40 42 41 37 33 31 28 26 22 14 10 14 18 20 21 20 18 18 18 19 19 18 17 16 14 13 13 14 15 15 15 15 17 19 21 23 25 25 26 27 26 25
4 1 3 2 1 1 2 0 1 2 4 6 7 7 6 5 6 5 1 3 3 7 14 10 7 12 13 15 19 17 11 7 4 13 28 34 33 33 33 32 32 33 34 35 37 41 41 38 35 32 29 28 24 15 10 14 18 20 22 21 21 21 21 21 21 21 20 19 18 17 17 17 16 17 17 18 18 17 16 17 19 21 22 24 25 25
4 3 2 2 2 2 3 2 2 4 4 5 7 7 5 2 7 5 3 5 4 11 17 12 11 14 15 16 17 11 6 6 8 17 28 31 30 31 31 30 31 32 33 34 35 38 41 40 39 36 33 32 28 19 12 14 18 19 21 21 21 21 22 23 24 24 24 24 24 23 22 21 21 20 19 20 21 20 18 17 16 17 19 21 22 22
2 1 0 2 2 2 4 2 3 4 4 5 6 5 1 6 6 3 2 5 7 15 16 13 14 15 14 15 14 9 10 13 16 21 27 28 29 32 31 31 31 31 32 33 33 35 38 39 39 37 34 32 28 23 18 14 14 16 18 19 18 19 20 23 25 26 27 28 29 29 28 27 26 25 23 22 22 23 22 21 19 18 18 19 19 19
0 0 0 2 2 2 3 2 3 4 4 5 4 3 3 4 1 3 4 6 11 14 13 13 13 13 13 14 14 12 15 17 18 22 26 28 29 32 32 33 34 33 33 34 34 34 35 37 37 37 35 32 28 25 23 19 15 13 14 15 15 17 19 21 24 26 28 29 31 31 32 32 31 30 28 26 25 25 27 26 24 21 20 20 19 19
3 2 1 2 3 1 1 1 1 3 5 6 4 1 2 3 3 5 5 8 11 11 11 12 12 12 13 14 15 15 15 16 18 21 25 27 29 30 32 33 34 34 34 35 36 37 37 38 39 39 38 34 30 27 25 23 21 17 14 13 14 16 18 19 22 24 27 29 30 32 33 34 34 34 33 31 29 28 29 30 29 27 24 23 23 22
3 3 2 2 3 2 2 2 3 4 5 7 5 3 3 4 3 4 5 8 9 8 9 11 12 11 11 12 15 16 16 17 18 20 24 27 28 30 31 32 33 33 33 34 37 38 38 38 39 39 38 35 32 30 28 27 26 23 19 15 14 15 18 19 20 23 26 28 29 30 31 32 33 34 35 35 33 32 31 32 32 31 29 27 26 26
5 5 3 2 3 4 4 6 7 4 3 5 7 6 4 4 5 5 6 7 7 7 8 11 13 12 9 11 13 14 16 17 17 18 22 26 28 29 30 31 32 33 33 34 36 37 37 36 36 38 38 35 33 32 30 29 30 28 24 20 15 13 16 19 22 24 26 28 30 31 31 31 32 32 33 33 34 34 34 33 33 34 33 32 30 29
4 4 4 2 2 3 5 9 9 7 6 6 7 6 4 4 5 6 5 6 5 6 7 10 12 11 10 11 12 14 16 17 16 18 21 24 27 29 29 31 32 32 33 34 35 37 37 36 36 38 40 37 34 33 31 30 31 31 28 24 20 16 13 14 18 22 26 29 32 34 34 34 34 33 32 31 31 32 34 34 34 34 34 33 32 31
2 3 3 2 1 2 3 5 5 5 6 5 5 7 7 5 5 5 5 6 6 6 7 9 11 11 10 11 11 13 15 16 15 17 20 23 27 29 29 30 31 32 32 33 34 36 36 36 37 39 41 40 36 33 32 30 30 30 29 25 22 19 15 12 12 16 21 25 30 34 36 38 37 36 34 32 31 30 31 32 33 34 34 34 34 33
0 2 2 3 3 3 4 8 9 8 9 9 8 9 9 7 6 6 6 6 6 6 7 10 11 11 10 10 10 12 14 15 15 16 19 23 26 28 28 29 30 31 31 31 33 34 35 36 36 38 41 42 39 35 34 32 31 31 29 27 25 23 19 17 15 15 17 21 27 31 34 37 38 36 35 33 32 31 30 30 32 33 34 35 35 34
2 1 2 3 2 3 6 9 10 10 10 12 11 11 10 8 8 7 7 6 6 6 7 10 10 10 9 9 10 11 14 15 15 15 18 22 25 27 27 27 28 30 30 31 31 33 34 35 35 36 38 41 41 40 38 36 34 33 31 29 27 25 23 22 20 18 16 18 24 29 31 33 35 35 34 32 30 30 29 29 31 33 33 32 33 32
3 2 2 2 2 4 5 7 6 3 6 10 11 10 10 9 8 8 7 7 6 7 8 10 10 9 7 7 9 11 13 15 15 16 18 21 24 25 25 25 26 27 29 30 30 32 34 36 36 36 37 38 41 43 42 39 37 36 35 33 30 28 28 26 22 19 17 14 16 26 30 30 32 36 36 33 31 31 30 29 30 31 31 29 30 31
10 8 6 5 5 6 9 11 10 7 8 11 10 10 11 10 9 8 8 7 6 6 8 9 11 12 9 7 8 10 12 14 15 16 17 20 22 23 23 23 25 26 27 28 30 32 35 37 38 39 39 38 39 41 42 41 40 38 38 38 35 34 33 31 26 24 24 22 11 12 23 25 26 31 33 32 31 30 29 29 29 30 29 27 28 30
Wind_Direction
20 33 40 326 291 295 289 237 227 249 228 273 289 255 262 267 279 272 267 283 313 315 276 261 271 278 283 285 281 293 303 307 301 303 313 320 321 311 319 330 326 322 326 327 312 287 269 266 265 258 246 238 237 235 234 232 233 235 233 229 228 228 226 225 227 227 226 229 229 226 225 224 224 222 222 223 222 221 219 219 220 220 221 220 220 221
33 51 326 256 259 280 281 231 225 266 218 237 262 271 289 256 255 265 269 297 323 268 273 294 310 289 275 277 276 287 296 288 283 288 302 310 310 304 314 327 325 323 328 329 313 290 270 260 262 262 253 242 236 231 228 230 233 235 232 227 226 228 226 225 228 226 223 227 227 225 223 222 222 220 220 221 220 219 217 218 220 220 221 221 221 221
20 356 273 269 284 304 301 159 162 256 125 140 173 119 303 268 263 291 294 303 331 305 285 316 321 291 272 269 269 271 265 266 280 284 292 300 300 298 310 322 322 322 326 329 320 300 281 265 257 261 260 248 239 233 228 230 232 231 228 225 226 232 235 233 232 228 224 225 227 226 224 222 221 220 220 220 219 219 219 218 219 220 219 220 221 221
351 264 276 309 346 354 341 20 65 28 21 107 154 137 273 291 328 298 300 316 334 299 273 308 303 283 276 278 274 266 259 271 289 290 290 292 292 296 309 316 322 328 328 331 327 314 302 285 262 254 259 254 242 234 230 230 229 228 227 227 228 231 237 239 236 231 226 227 228 227 226 225 221 220 221 220 219 219 220 219 218 218 218 217 219 220
266 259 295 358 16 30 357 337 16 48 358 305 232 200 246 295 261 234 280 316 334 326 318 343 313 292 274 262 270 280 282 284 291 295 294 292 293 299 308 315 324 331 330 330 329 323 318 311 284 255 253 256 248 239 236 234 231 230 231 231 231 228 231 234 232 228 225 225 227 225 222 222 221 222 220 218 218 216 217 219 218 217 217 216 217 220
264 269 350 19 8 36 47 327 321 132 358 319 256 211 228 262 262 271 319 345 7 339 326 21 344 291 252 235 261 293 301 291 301 312 303 300 304 307 314 326 329 329 328 325 325 324 318 318 310 274 256 256 254 248 245 241 237 237 236 234 231 228 226 226 225 226 225 224 228 225 218 216 218 218 215 215 216 214 215 218 219 217 216 216 217 220
274 326 29 37 9 27 41 335 304 127 70 347 276 224 213 239 321 301 333 9 9 289 286 70 98 274 280 275 269 281 295 299 312 318 304 307 314 317 322 327 327 325 324 321 320 321 314 310 314 297 268 257 255 253 248 242 239 238 237 234 228 223 223 225 226 225 222 224 229 229 223 221 221 217 213 215 216 217 218 220 221 217 214 217 219 220
291 338 20 34 29 37 31 348 308 313 97 301 286 298 55 13 328 280 246 197 230 274 309 257 144 265 286 294 16 335 325 314 310 309 306 313 319 322 323 322 322 320 318 316 314 316 314 304 304 299 279 263 258 255 246 240 238 235 233 230 224 221 224 230 228 218 216 221 225 229 228 226 226 223 220 219 217 219 223 225 226 221 214 217 220 221
299 341 2 23 32 39 13 303 289 279 131 259 277 301 301 307 290 263 215 220 239 29 313 277 123 262 274 311 19 349 331 312 306 307 303 309 314 316 316 315 316 314 311 309 307 312 314 303 295 290 281 270 266 260 250 243 240 235 232 228 224 223 228 232 228 218 215 218 222 227 228 228 230 229 226 226 223 223 226 228 230 225 218 216 219 222
293 299 289 86 74 24 309 289 286 99 85 271 275 305 288 318 334 314 171 201 20 42 263 275 58 269 277 321 348 348 2 325 311 310 300 302 308 310 311 312 313 312 307 302 300 309 316 305 288 283 278 267 263 262 255 247 242 236 232 230 228 228 229 230 228 222 218 219 222 225 226 228 233 230 226 227 228 227 228 229 230 229 223 218 218 221
297 300 277 116 102 280 279 296 292 122 76 326 13 346 324 1 17 24 45 96 64 350 262 289 9 70 302 296 275 2 349 308 304 312 311 312 312 311 312 313 314 312 305 302 301 309 324 317 287 275 276 268 257 255 254 246 241 236 230 228 229 230 229 227 224 224 224 223 222 223 225 227 231 231 227 226 227 229 229 228 230 230 226 222 220 221
333 1 326 302 335 346 326 321 320 309 356 29 46 1 343 348 1 19 1 38 75 315 256 272 317 141 243 271 273 291 298 299 311 316 314 316 314 314 317 317 318 317 310 308 309 314 333 337 307 277 269 269 261 251 249 244 238 235 231 226 225 225 226 225 222 223 227 228 224 223 226 226 227 230 230 229 227 227 227 227 228 230 228 226 223 223
338 312 313 309 352 26 18 345 332 329 360 22 27 28 34 3 4 12 343 359 84 257 225 231 300 248 237 264 272 280 296 315 325 322 318 315 313 319 326 328 331 337 335 330 324 321 331 342 335 307 273 264 261 252 246 242 237 234 231 229 226 224 223 223 222 222 225 228 226 224 226 228 227 227 230 232 229 228 227 227 229 230 229 227 224 223
341 305 347 17 10 15 35 33 343 322 349 0 5 45 55 61 21 337 300 332 296 273 242 225 268 281 289 275 255 268 300 327 334 332 327 322 319 323 331 340 350 358 357 350 342 334 335 341 342 335 307 271 259 254 245 240 238 234 231 230 230 226 223 222 224 225 226 226 226 226 227 228 226 227 232 236 236 234 231 229 230 230 230 230 227 225
5 312 346 34 329 350 24 20 313 284 326 341 158 118 96 130 48 296 257 288 283 287 298 296 237 202 265 274 276 305 323 342 346 339 334 331 332 336 340 348 355 357 354 352 350 347 347 346 344 344 337 304 268 256 246 236 233 233 232 230 230 228 225 224 225 227 228 227 226 226 228 228 227 229 234 236 240 241 237 234 233 230 231 234 233 230
43 277 266 314 315 352 10 326 319 333 331 322 146 95 52 176 163 267 252 232 269 313 297 272 232 213 231 276 317 340 341 353 352 344 344 343 341 344 346 348 349 346 345 346 346 348 351 352 351 350 350 334 294 261 246 234 227 229 231 230 230 229 228 229 230 229 229 229 226 224 226 228 227 229 231 232 235 239 240 240 238 235 235 237 238 236
37 275 269 326 328 23 7 334 33 40 324 277 8 357 318 148 133 80 293 262 27 347 284 267 271 285 309 308 338 358 353 354 352 347 347 344 342 343 343 343 342 338 337 338 339 342 345 350 354 354 354 347 321 277 245 231 224 225 229 231 230 230 229 231 233 232 230 228 225 224 226 227 228 229 229 231 233 234 237 238 239 240 240 241 241 240
120 279 288 339 317 316 2 54 69 43 14 55 7 327 336 75 97 88 259 303 348 263 279 297 278 302 349 322 345 2 356 348 346 345 342 341 342 341 336 336 336 333 332 333 334 337 339 344 351 355 356 353 339 303 252 230 225 226 231 235 233 229 227 228 231 232 230 228 226 227 227 224 225 228 229 232 233 234 237 238 238 239 240 241 241 241
121 303 294 271 264 313 8 74 65 14 27 79 211 324 22 4 338 47 154 295 287 256 290 297 269 297 317 319 349 358 351 341 339 338 338 339 339 336 331 331 332 332 331 331 332 332 333 337 343 350 356 356 349 326 272 238 230 229 232 238 237 233 228 226 228 230 229 229 228 230 233 230 230 234 236 235 234 236 239 240 240 239 239 241 242 242
99 29 285 286 335 342 9 55 37 341 9 39 13 19 58 227 266 337 238 308 257 253 293 306 331 337 274 340 353 350 344 340 336 333 334 333 330 328 326 326 327 329 329 328 330 329 327 330 335 342 351 357 358 345 305 259 241 233 231 236 238 235 229 225 226 227 228 229 228 228 231 232 234 238 241 239 237 237 239 241 241 240 240 243 244 244
72 85 253 299 353 14 359 13 98 142 312 345 6 359 324 304 46 261 248 155 146 222 254 298 310 294 241 1 351 346 343 340 334 330 328 325 325 325 325 324 324 325 327 327 328 328 325 324 328 335 344 353 1 1 340 300 271 252 238 235 237 235 230 225 224 226 227 227 228 226 226 228 228 230 233 235 235 236 238 239 240 241 242 244 247 247
111 140 221 303 337 354 282 268 138 155 212 287 332 312 324 323 300 282 271 156 161 228 200 247 285 256 181 358 340 340 341 340 337 332 326 323 323 324 325 326 326 325 326 327 328 328 324 321 323 328 336 346 356 5 3 340 295 272 257 243 237 235 233 229 226 226 227 227 228 227 226 226 227 228 229 231 232 233 234 236 239 242 243 246 249 250
146 123 102 296 287 286 290 311 47 158 186 142 173 243 322 321 298 293 296 267 205 228 209 213 285 256 221 240 305 331 336 339 340 335 329 324 319 321 326 328 329 328 328 330 330 329 324 319 319 322 326 336 346 359 10 6 333 278 260 250 241 237 236 235 232 230 230 231 231 232 231 231 232 235 238 241 242 242 241 240 241 243 245 248 251 252
123 86 75 278 281 317 357 1 358 337 65 80 322 310 337 344 333 287 273 294 286 247 220 173 266 263 240 241 281 316 330 332 336 336 335 328 319 319 324 328 332 332 332 335 335 332 326 318 315 317 320 327 338 349 3 11 7 329 263 245 242 241 239 238 236 234 233 234 236 237 237 237 239 239 240 242 245 249 252 251 248 247 247 249 251 253
188 319 111 312 314 344 11 352 329 324 38 48 291 310 348 348 341 319 280 325 268 242 241 204 250 277 268 305 308 319 334 330 328 334 336 333 327 323 325 329 333 334 334 337 339 337 331 321 314 314 316 319 327 337 346 2 12 7 332 259 242 241 241 241 238 235 234 234 235 237 237 236 236 235 234 237 241 246 250 251 250 251 250 249 250 253
181 290 124 78 344 324 318 325 311 312 356 355 290 310 343 348 349 344 290 286 279 280 288 245 252 294 309 329 320 321 335 327 322 330 334 336 336 334 332 332 334 337 337 337 339 339 335 327 318 313 312 313 318 326 333 344 1 11 8 346 271 246 241 241 238 236 235 235 236 238 238 238 236 234 234 233 235 241 247 249 249 251 252 251 249 251
82 351 200 175 191 223 247 250 229 175 326 306 297 318 338 342 343 339 263 302 310 301 294 269 283 305 316 329 327 325 329 325 323 326 331 340 343 340 336 333 334 338 339 338 339 339 337 332 324 315 311 309 311 316 323 330 341 359 11 11 354 286 251 245 243 240 239 240 242 243 241 241 240 238 237 236 237 240 242 245 248 250 253 254 251 250
81 302 244 195 214 232 244 256 249 157 211 242 277 316 333 329 330 337 290 285 306 309 312 315 316 314 316 324 326 323 324 326 326 321 324 338 345 342 339 335 337 341 341 341 340 337 337 335 328 321 315 309 308 309 313 319 325 337 358 12 13 354 284 255 254 251 246 243 244 246 243 241 241 241 239 239 242 241 236 240 246 249 252 255 255 251
109 260 233 177 240 248 247 264 261 208 216 220 236 294 338 335 325 325 298 289 308 308 298 312 316 312 312 320 325 324 322 322 320 316 322 334 341 344 342 336 340 345 343 341 340 337 335 334 330 323 316 311 309 308 308 309 309 314 330 358 10 8 352 279 254 254 256 250 245 245 243 240 242 242 239 237 240 241 237 238 245 249 251 253 254 251
113 254 217 168 274 264 235 253 246 206 217 212 225 260 331 331 311 310 307 301 291 264 271 306 313 305 308 326 325 321 322 323 322 322 329 334 336 343 344 338 341 348 345 340 339 336 334 332 329 324 315 309 310 310 308 305 300 298 302 321 356 1 357 339 272 249 252 253 249 246 243 241 242 242 240 238 238 239 238 239 245 249 248 249 252 252
141 247 178 132 314 309 200 212 289 236 209 208 236 265 310 323 320 328 315 297 286 283 299 315 315 307 320 330 323 320 326 332 336 334 334 336 336 342 345 340 341 347 347 343 338 336 334 331 329 326 316 307 305 308 309 305 296 289 287 290 314 341 338 337 326 278 253 249 249 249 248 244 242 243 241 237 234 234 238 242 246 247 246 248 253 254
152 267 359 78 354 298 191 181 309 287 144 198 271 276 294 319 334 323 299 288 295 321 325 324 324 321 325 327 325 327 332 338 342 338 334 336 339 343 344 340 340 346 348 345 340 337 334 331 330 328 319 308 300 301 307 305 294 285 281 280 280 291 302 307 320 317 285 258 248 246 247 245 243 243 242 238 234 234 239 244 245 245 246 249 253 254
154 174 306 85 307 275 248 323 331 54 67 337 263 226 217 269 294 286 290 292 294 321 334 327 321 313 317 326 330 333 338 338 337 334 334 336 338 342 344 341 342 346 347 345 344 340 336 332 331 329 321 308 298 295 301 303 297 288 280 276 272 271 276 277 286 302 306 290 255 242 241 241 242 242 242 242 240 238 244 250 248 248 250 252 253 254
152 140 172 216 233 273 300 336 25 56 26 259 237 192 179 210 265 276 296 293 285 314 341 305 301 309 319 330 331 330 331 329 328 330 338 343 340 340 343 344 344 346 346 346 346 345 340 334 333 332 324 309 295 291 295 296 296 291 280 272 269 268 269 267 263 269 284 293 276 249 238 236 239 240 243 245 240 236 244 252 253 253 255 256 255 252
134 143 172 225 221 268 319 16 38 353 239 242 266 245 203 193 217 249 282 278 261 315 335 314 311 318 323 329 329 325 324 325 328 333 344 347 345 341 343 346 347 347 347 346 347 347 343 339 337 337 335 321 298 288 294 295 291 286 276 267 264 265 266 263 258 256 260 264 267 261 246 238 238 238 240 244 240 235 240 246 248 252 255 257 256 252
145 151 171 211 219 263 357 62 104 252 252 271 301 284 250 6 261 267 288 276 227 287 321 313 316 321 323 328 331 329 327 326 328 341 350 349 348 346 344 346 349 349 348 347 348 347 345 343 342 341 343 339 317 296 295 294 287 280 274 265 258 258 258 258 258 257 256 256 256 257 254 247 243 240 238 239 237 236 238 239 241 245 249 251 250 248
150 146 181 242 218 170 161 225 246 306 323 315 295 298 259 245 231 210 276 270 226 257 310 312 317 325 325 326 331 334 332 330 327 348 353 351 349 346 345 346 349 350 349 350 350 349 348 350 350 348 350 354 345 323 297 284 279 277 275 269 261 256 254 253 256 257 257 257 255 255 255 252 250 246 241 237 235 235 236 237 238 240 243 244 243 243
141 164 177 211 253 113 95 310 328 355 322 259 249 266 265 247 227 185 191 262 246 309 336 335 322 325 324 325 332 336 336 338 339 343 348 349 348 348 348 348 349 349 350 352 353 352 353 356 358 357 357 357 354 342 301 279 278 280 279 275 269 262 257 254 254 255 259 262 262 260 257 254 252 250 246 242 237 235 235 237 238 239 241 243 244 246
79 88 133 140 288 86 118 184 239 220 250 243 235 259 290 266 206 165 111 276 257 330 343 342 326 322 322 327 335 338 341 350 345 335 341 346 348 349 349 349 348 348 351 355 356 354 355 359 3 4 3 1 358 350 311 286 283 284 284 280 274 268 262 260 258 257 259 261 262 261 256 253 251 248 247 245 242 237 233 231 233 237 239 241 242 243
61 39 98 164 237 209 149 172 224 230 247 233 228 266 303 170 149 111 4 268 274 335 340 336 326 322 324 334 340 344 346 340 325 330 340 345 348 350 350 349 349 348 351 357 359 359 359 1 6 8 7 3 2 0 337 302 289 288 287 283 278 272 267 264 263 261 259 256 255 255 254 253 251 247 244 244 245 244 239 231 227 230 233 233 232 231
40 18 140 171 195 185 173 213 268 262 247 224 230 263 253 133 121 77 271 255 306 332 334 332 328 327 332 341 343 337 332 334 332 337 345 349 350 352 353 354 354 353 355 358 1 1 1 2 6 9 8 4 3 5 360 337 311 298 290 285 281 275 268 264 262 261 260 258 256 254 253 253 252 250 246 243 242 243 242 238 233 229 229 229 226 224
175 45 224 155 152 165 169 198 292 288 246 215 223 243 160 129 118 248 241 289 316 322 329 333 330 332 339 341 340 335 334 341 345 346 350 352 353 354 355 356 358 359 360 3 6 6 5 5 6 9 9 7 6 7 7 1 347 328 309 297 287 277 268 262 259 257 257 258 258 256 254 252 252 251 249 246 243 240 239 239 238 233 230 229 228 227
170 156 243 207 178 146 75 71 327 288 237 199 192 228 166 166 227 249 270 308 312 316 332 332 327 335 338 335 338 343 344 347 349 348 349 351 353 356 357 358 360 0 1 4 8 10 10 8 8 9 9 8 8 10 11 8 2 356 341 319 297 281 272 264 258 255 254 255 256 255 255 253 252 251 251 249 246 243 239 237 237 236 234 232 232 231
185 164 200 227 188 138 119 181 209 225 217 197 198 222 208 205 251 278 280 293 308 323 333 329 330 337 338 333 337 345 350 350 347 347 349 350 352 355 358 360 1 1 1 2 4 8 10 8 6 5 5 7 9 12 15 14 8 4 358 341 312 285 274 267 260 255 252 251 251 251 252 252 251 250 250 249 248 247 244 240 237 236 236 235 235 236
216 185 170 211 207 174 192 226 234 239 237 217 221 235 233 228 258 281 275 280 305 324 326 328 331 333 338 338 337 345 351 347 344 347 348 348 350 353 356 359 1 1 2 2 4 8 11 10 6 3 5 9 10 11 14 16 12 7 2 355 340 309 282 268 261 256 252 250 250 250 250 249 248 248 249 249 249 248 247 245 242 239 237 237 237 237
227 185 145 154 250 262 256 252 252 256 257 240 228 230 233 235 248 263 268 270 289 312 320 327 328 328 335 339 338 346 348 341 339 344 344 345 349 352 353 357 360 1 3 4 5 7 10 11 9 7 8 12 13 11 12 14 13 9 3 360 356 346 319 285 268 259 253 250 249 249 250 250 249 248 247 246 247 247 246 246 246 245 242 241 241 240
256 178 173 191 231 285 268 255 250 238 235 247 252 236 229 235 243 244 252 262 277 300 312 320 324 323 327 330 334 342 342 337 338 342 341 344 350 351 352 355 358 360 3 6 7 8 10 11 11 11 12 15 16 15 14 14 13 11 7 4 2 357 348 331 302 278 263 255 249 246 246 248 250 249 247 245 243 243 242 242 243 246 247 245 243 242
131 140 205 211 184 192 247 270 279 263 250 264 275 252 231 228 237 242 251 263 273 288 303 315 320 317 318 327 336 339 336 334 339 341 340 345 350 351 352 354 356 358 2 6 10 12 12 13 13 13 15 16 17 19 19 17 15 14 11 9 8 3 358 353 340 313 286 269 257 248 242 243 245 246 245 244 242 240 238 236 234 237 242 245 245 244
208 219 226 199 212 272 282 281 284 280 268 262 257 244 233 232 241 247 250 256 264 280 300 316 318 314 316 331 342 341 334 332 338 342 342 344 348 350 351 354 356 358 1 6 13 16 16 16 16 16 16 17 18 20 21 19 17 18 17 15 13 11 6 1 353 341 320 288 265 254 246 240 239 238 237 237 237 237 237 236 231 229 235 241 243 242
202 229 190 166 255 275 261 251 244 251 273 260 242 232 237 243 246 247 246 252 270 290 310 321 321 314 314 329 341 343 338 335 338 342 342 344 347 348 350 353 357 359 2 5 11 16 18 18 18 18 18 18 18 19 20 19 17 18 18 18 19 19 16 10 360 350 344 324 272 251 244 238 232 230 228 225 225 228 231 231 228 226 228 232 234 235
215 221 197 185 215 234 247 252 236 222 256 269 254 237 243 252 254 249 249 259 280 301 315 323 323 321 320 327 340 345 342 339 339 339 339 341 342 344 350 356 357 359 3 6 11 15 18 19 19 19 20 20 19 20 20 19 18 18 18 19 21 23 24 23 18 14 12 11 352 245 229 227 223 221 220 218 219 222 224 221 217 217 220 225 229 233
Height
1501 1503 1505 1507 1507 1506 1505 1505 1504 1503 1505 1505 1506 1508 1509 1510 1508 1502 1497 1493 1492 1495 1492 1489 1490 1489 1487 1485 1482 1480 1479 1478 1477 1476 1475 1475 1476 1475 1474 1473 1471 1469 1468 1466 1464 1463 1462 1462 1463 1465 1466 1468 1469 1472 1474 1476 1477 1479 1481 1482 1485 1489 1492 1494 1495 1494 1495 1498 1500 1503 1505 1506 1507 1510 1512 1514 1516 1517 1519 1522 1523 1525 1526 1528 1529 1531
1503 1505 1506 1506 1505 1504 1504 1504 1504 1503 1504 1505 1506 1508 1508 1509 1506 1499 1496 1494 1493 1495 1492 1488 1489 1488 1486 1483 1480 1478 1477 1476 1475 1475 1473 1472 1473 1473 1473 1472 1470 1468 1466 1465 1462 1460 1460 1459 1460 1462 1463 1464 1465 1467 1469 1471 1473 1475 1477 1478 1482 1487 1489 1491 1491 1490 1491 1494 1497 1499 1501 1503 1505 1508 1510 1511 1514 1516 1518 1519 1521 1522 1524 1525 1527 1529
1506 1506 1505 1504 1504 1503 1502 1502 1503 1502 1502 1504 1505 1506 1506 1504 1502 1498 1496 1494 1493 1493 1491 1489 1489 1486 1484 1481 1478 1476 1475 1473 1473 1473 1472 1471 1470 1471 1471 1470 1468 1467 1465 1463 1461 1459 1457 1457 1457 1458 1459 1461 1462 1463 1466 1468 1470 1472 1474 1476 1480 1485 1488 1490 1491 1489 1489 1491 1495 1498 1500 1502 1504 1506 1509 1511 1513 1515 1516 1517 1518 1520 1521 1523 1525 1526
1510 1507 1504 1504 1503 1502 1501 1501 1502 1502 1501 1502 1503 1505 1504 1501 1503 1501 1496 1495 1494 1493 1492 1491 1489 1484 1481 1478 1475 1474 1473 1471 1471 1470 1470 1470 1468 1468 1469 1468 1467 1466 1464 1462 1460 1458 1455 1455 1455 1455 1456 1457 1459 1461 1463 1465 1466 1468 1470 1472 1476 1481 1484 1487 1489 1488 1489 1492 1495 1498 1500 1501 1503 1506 1508 1510 1511 1512 1513 1514 1515 1516 1518 1520 1522 1524
1509 1506 1503 1504 1503 1503 1502 1501 1501 1502 1502 1503 1502 1502 1502 1500 1501 1501 1499 1497 1494 1494 1493 1491 1489 1482 1477 1476 1473 1473 1473 1470 1470 1470 1469 1468 1468 1467 1467 1467 1466 1465 1463 1461 1459 1457 1454 1453 1452 1452 1453 1455 1456 1457 1458 1460 1462 1463 1465 1468 1472 1476 1478 1481 1485 1487 1490 1492 1494 1497 1499 1501 1502 1504 1505 1505 1505 1506 1508 1510 1512 1513 1515 1517 1520 1521
1506 1504 1504 1504 1504 1504 1504 1503 1502 1503 1504 1503 1500 1500 1500 1499 1499 1499 1499 1498 1497 1498 1493 1493 1497 1485 1474 1475 1474 1473 1473 1471 1470 1470 1468 1467 1467 1467 1466 1466 1465 1463 1462 1460 1458 1456 1454 1452 1450 1450 1450 1452 1453 1453 1454 1456 1458 1459 1462 1464 1466 1470 1472 1476 1484 1490 1492 1492 1493 1495 1496 1497 1498 1498 1497 1497 1498 1500 1503 1506 1509 1511 1513 1515 1517 1519
1505 1504 1504 1505 1505 1505 1505 1504 1503 1503 1505 1504 1500 1499 1499 1498 1499 1499 1499 1499 1501 1501 1494 1494 1502 1492 1475 1474 1476 1474 1473 1472 1471 1471 1468 1467 1466 1465 1465 1464 1463 1461 1459 1458 1456 1454 1452 1450 1449 1448 1447 1448 1448 1450 1452 1453 1455 1456 1458 1460 1462 1465 1466 1472 1481 1488 1492 1493 1492 1492 1493 1494 1494 1492 1491 1492 1495 1499 1501 1505 1508 1509 1510 1512 1514 1516
1505 1505 1505 1506 1505 1505 1505 1505 1503 1503 1505 1504 1500 1500 1499 1498 1499 1498 1498 1500 1499 1499 1497 1494 1499 1497 1483 1476 1476 1474 1474 1473 1471 1470 1468 1466 1465 1463 1463 1462 1461 1459 1458 1456 1453 1451 1450 1449 1447 1446 1445 1444 1444 1447 1450 1451 1452 1453 1454 1456 1458 1461 1462 1468 1476 1481 1485 1488 1489 1490 1491 1491 1491 1490 1489 1491 1495 1498 1500 1504 1506 1507 1508 1509 1511 1513
1506 1506 1506 1506 1506 1506 1506 1505 1503 1502 1503 1502 1500 1499 1498 1497 1497 1496 1497 1499 1499 1500 1500 1495 1497 1499 1489 1479 1477 1475 1474 1473 1470 1469 1468 1466 1464 1462 1460 1459 1458 1457 1456 1454 1452 1450 1448 1446 1445 1444 1443 1442 1442 1444 1446 1448 1449 1451 1452 1454 1456 1458 1459 1463 1470 1475 1478 1482 1485 1487 1488 1488 1487 1488 1489 1492 1495 1498 1499 1502 1503 1504 1505 1507 1508 1510
1507 1506 1506 1506 1507 1507 1506 1504 1502 1501 1502 1501 1499 1498 1497 1497 1497 1497 1497 1498 1500 1501 1500 1497 1499 1500 1491 1481 1479 1476 1474 1474 1471 1469 1468 1466 1464 1461 1458 1457 1456 1455 1453 1451 1450 1449 1446 1444 1443 1442 1441 1440 1440 1441 1443 1445 1447 1449 1451 1452 1454 1455 1456 1458 1464 1469 1473 1477 1480 1482 1483 1484 1485 1486 1488 1490 1493 1495 1497 1499 1500 1501 1502 1504 1505 1507
1508 1505 1505 1506 1507 1506 1504 1503 1501 1501 1501 1500 1499 1498 1496 1497 1497 1498 1500 1500 1501 1503 1503 1501 1500 1502 1497 1485 1479 1476 1474 1475 1474 1471 1468 1465 1463 1459 1456 1455 1454 1452 1450 1449 1448 1446 1444 1442 1441 1440 1438 1438 1438 1438 1440 1441 1444 1446 1448 1450 1450 1452 1454 1456 1459 1463 1468 1472 1476 1477 1478 1481 1483 1484 1485 1487 1488 1491 1493 1495 1496 1498 1499 1501 1502 1504
1507 1506 1506 1505 1505 1505 1504 1503 1502 1501 1501 1500 1502 1501 1498 1499 1498 1498 1500 1500 1502 1504 1505 1504 1501 1504 1502 1488 1477 1476 1474 1474 1475 1473 1470 1466 1463 1458 1455 1453 1452 1451 1448 1447 1446 1444 1442 1440 1438 1437 1436 1436 1436 1436 1437 1438 1439 1442 1444 1447 1448 1449 1452 1454 1456 1459 1464 1468 1471 1473 1474 1476 1480 1481 1482 1483 1484 1486 1488 1490 1492 1495 1496 1498 1499 1501
1507 1507 1508 1506 1505 1505 1504 1504 1503 1501 1501 1501 1503 1504 1503 1506 1507 1505 1505 1506 1507 1504 1503 1504 1502 1502 1498 1485 1478 1476 1473 1473 1475 1474 1472 1468 1464 1459 1455 1453 1451 1449 1447 1446 1445 1443 1441 1438 1436 1435 1434 1433 1433 1433 1433 1434 1436 1437 1440 1443 1444 1446 1449 1451 1453 1456 1460 1463 1466 1468 1470 1472 1475 1477 1477 1478 1480 1483 1484 1486 1489 1491 1492 1494 1495 1496
1512 1508 1507 1506 1505 1505 1505 1507 1508 1505 1503 1504 1506 1506 1508 1514 1518 1517 1516 1516 1512 1505 1502 1505 1504 1501 1493 1482 1477 1476 1474 1475 1475 1473 1472 1470 1466 1462 1457 1454 1450 1448 1446 1445 1444 1442 1440 1437 1435 1434 1432 1431 1430 1430 1430 1431 1432 1434 1435 1437 1440 1443 1446 1448 1450 1452 1455 1458 1461 1464 1466 1467 1470 1472 1473 1474 1476 1479 1481 1483 1485 1487 1489 1490 1491 1492
1524 1517 1509 1507 1508 1506 1506 1508 1509 1507 1505 1506 1508 1508 1509 1513 1517 1519 1518 1516 1512 1507 1506 1506 1503 1498 1489 1478 1475 1476 1476 1475 1475 1474 1472 1469 1466 1463 1457 1452 1449 1447 1446 1444 1443 1440 1438 1436 1434 1432 1430 1428 1427 1427 1427 1427 1428 1430 1431 1433 1435 1438 1442 1445 1446 1449 1451 1454 1457 1459 1461 1463 1466 1468 1470 1472 1473 1475 1476 1479 1481 1483 1485 1487 1488 1490
1528 1523 1511 1508 1509 1507 1508 1508 1506 1506 1508 1508 1508 1508 1509 1510 1512 1515 1516 1514 1515 1515 1512 1506 1499 1493 1485 1477 1476 1478 1475 1473 1473 1472 1469 1466 1463 1460 1456 1452 1449 1447 1445 1443 1441 1439 1436 1434 1432 1430 1428 1426 1424 1423 1423 1423 1424 1426 1428 1429 1430 1433 1437 1440 1442 1445 1447 1450 1453 1455 1457 1459 1462 1465 1467 1469 1471 1472 1473 1475 1476 1479 1481 1484 1486 1488
1527 1522 1510 1509 1509 1507 1509 1508 1506 1508 1510 1509 1509 1509 1510 1510 1511 1515 1516 1516 1518 1518 1512 1505 1496 1489 1483 1478 1477 1478 1474 1472 1471 1468 1467 1465 1462 1458 1455 1453 1451 1448 1445 1443 1441 1438 1435 1433 1431 1429 1427 1424 1422 1420 1420 1420 1421 1422 1424 1425 1427 1430 1433 1436 1438 1441 1443 1447 1450 1451 1453 1455 1458 1461 1462 1464 1468 1470 1471 1473 1474 1476 1479 1481 1484 1486
1527 1521 1511 1510 1510 1507 1508 1508 1506 1509 1510 1510 1513 1511 1510 1510 1511 1515 1519 1518 1519 1518 1511 1504 1498 1492 1489 1484 1481 1481 1478 1475 1472 1470 1468 1466 1463 1459 1455 1454 1453 1449 1445 1442 1440 1437 1434 1432 1430 1427 1425 1423 1420 1418 1417 1417 1418 1419 1421 1422 1424 1426 1429 1432 1434 1437 1440 1443 1446 1448 1450 1451 1453 1456 1458 1460 1464 1468 1469 1470 1472 1474 1477 1479 1481 1483
1525 1522 1512 1510 1510 1508 1507 1508 1509 1510 1509 1511 1514 1512 1513 1516 1516 1517 1519 1517 1518 1517 1510 1503 1500 1497 1495 1492 1490 1489 1486 1481 1477 1473 1471 1469 1466 1463 1458 1454 1452 1449 1444 1441 1438 1436 1433 1431 1429 1426 1424 1422 1419 1416 1415 1415 1415 1416 1417 1420 1422 1424 1426 1428 1431 1434 1437 1439 1442 1445 1448 1449 1451 1453 1455 1457 1461 1464 1466 1468 1470 1473 1475 1477 1479 1481
1524 1525 1517 1509 1508 1508 1507 1509 1513 1514 1512 1511 1512 1512 1514 1518 1518 1518 1518 1516 1517 1518 1512 1505 1500 1498 1497 1497 1497 1495 1491 1487 1482 1476 1474 1472 1470 1467 1462 1457 1452 1449 1445 1441 1438 1435 1432 1430 1428 1426 1424 1421 1419 1417 1414 1413 1413 1413 1415 1417 1419 1422 1424 1426 1428 1431 1433 1436 1438 1442 1445 1447 1450 1452 1453 1454 1457 1459 1461 1464 1468 1471 1474 1476 1477 1479
1523 1527 1522 1511 1509 1510 1510 1512 1514 1517 1517 1515 1515 1516 1516 1516 1516 1517 1515 1515 1516 1518 1519 1515 1505 1500 1499 1498 1497 1496 1492 1490 1486 1481 1476 1473 1470 1467 1463 1459 1453 1449 1446 1441 1438 1435 1431 1429 1426 1424 1423 1421 1420 1417 1414 1412 1411 1412 1412 1414 1416 1419 1421 1424 1426 1427 1430 1432 1435 1438 1441 1443 1445 1448 1452 1454 1456 1457 1458 1461 1465 1469 1472 1474 1475 1477
1522 1527 1526 1518 1514 1513 1514 1513 1512 1514 1516 1517 1517 1518 1517 1517 1517 1516 1513 1514 1516 1516 1517 1517 1511 1502 1499 1497 1495 1494 1492 1489 1487 1483 1479 1474 1470 1466 1461 1457 1453 1449 1445 1441 1438 1434 1431 1428 1425 1423 1421 1419 1418 1417 1414 1412 1411 1411 1411 1412 1414 1416 1418 1420 1423 1424 1426 1428 1430 1433 1435 1438 1441 1445 1449 1453 1455 1457 1458 1460 1463 1467 1470 1473 1474 1475
1520 1524 1525 1522 1516 1514 1514 1513 1513 1513 1513 1515 1517 1516 1516 1518 1518 1518 1514 1514 1516 1514 1512 1516 1514 1503 1495 1494 1492 1490 1489 1488 1486 1484 1480 1475 1470 1465 1460 1455 1451 1447 1444 1441 1437 1433 1430 1427 1424 1422 1420 1418 1417 1416 1414 1413 1411 1411 1411 1411 1412 1413 1415 1417 1420 1422 1424 1426 1427 1429 1432 1436 1440 1444 1448 1452 1455 1458 1460 1461 1463 1466 1468 1471 1473 1474
1520 1523 1526 1522 1515 1512 1514 1515 1514 1513 1513 1516 1517 1515 1515 1517 1517 1516 1514 1513 1515 1512 1511 1515 1512 1498 1490 1491 1488 1487 1487 1487 1485 1484 1481 1475 1469 1464 1459 1454 1449 1445 1442 1439 1436 1432 1428 1426 1423 1421 1419 1417 1415 1414 1414 1412 1411 1410 1410 1410 1411 1411 1413 1415 1417 1419 1421 1423 1425 1427 1430 1434 1438 1442 1446 1449 1452 1455 1458 1459 1461 1462 1465 1468 1470 1472
1519 1523 1525 1524 1518 1514 1515 1517 1515 1513 1514 1518 1519 1516 1515 1515 1514 1513 1512 1514 1513 1509 1509 1512 1505 1492 1488 1490 1487 1485 1485 1484 1483 1482 1479 1475 1469 1463 1458 1454 1449 1444 1440 1437 1434 1430 1427 1424 1421 1419 1418 1416 1414 1413 1412 1411 1410 1409 1408 1408 1409 1410 1411 1412 1414 1416 1418 1419 1422 1424 1426 1430 1433 1437 1440 1443 1446 1448 1451 1452 1454 1456 1459 1462 1466 1468
1519 1523 1522 1522 1524 1522 1520 1519 1518 1517 1518 1520 1519 1516 1515 1515 1515 1513 1513 1514 1511 1507 1508 1509 1502 1492 1488 1488 1487 1484 1484 1483 1481 1479 1477 1474 1469 1464 1459 1454 1449 1444 1439 1435 1432 1429 1426 1422 1420 1418 1416 1414 1413 1412 1411 1410 1409 1408 1407 1406 1406 1407 1408 1410 1411 1413 1415 1416 1418 1420 1422 1425 1428 1431 1435 1438 1440 1442 1444 1446 1448 1451 1453 1457 1460 1464
1521 1525 1521 1519 1521 1521 1520 1518 1518 1520 1522 1522 1519 1517 1516 1515 1516 1515 1514 1513 1511 1510 1508 1504 1502 1497 1491 1488 1487 1484 1482 1482 1479 1477 1475 1472 1468 1464 1459 1454 1450 1445 1440 1435 1432 1429 1426 1422 1418 1416 1414 1412 1411 1410 1409 1408 1407 1406 1405 1404 1404 1404 1405 1406 1408 1410 1412 1413 1415 1416 1417 1420 1423 1426 1430 1433 1434 1436 1439 1442 1445 1447 1449 1453 1456 1459
1521 1522 1521 1520 1517 1516 1516 1515 1516 1520 1522 1521 1519 1517 1516 1515 1516 1516 1514 1513 1512 1512 1507 1501 1501 1501 1494 1491 1490 1486 1481 1479 1478 1477 1474 1471 1469 1465 1459 1454 1449 1445 1440 1435 1431 1428 1425 1421 1418 1415 1412 1410 1409 1407 1407 1406 1405 1404 1403 1403 1403 1403 1403 1403 1405 1406 1408 1409 1411 1412 1413 1415 1419 1422 1426 1429 1430 1432 1434 1438 1442 1444 1447 1449 1452 1454
1520 1520 1521 1522 1517 1514 1516 1514 1515 1519 1519 1518 1518 1517 1515 1515 1516 1516 1514 1512 1512 1512 1508 1503 1502 1500 1496 1492 1490 1486 1482 1478 1476 1476 1473 1471 1469 1465 1460 1455 1449 1444 1440 1435 1432 1428 1424 1421 1417 1414 1411 1409 1408 1406 1405 1405 1404 1403 1402 1401 1401 1402 1402 1402 1403 1404 1405 1406 1407 1409 1411 1413 1415 1419 1422 1424 1426 1428 1430 1434 1438 1441 1444 1446 1448 1450
1519 1519 1521 1523 1518 1514 1516 1515 1515 1517 1516 1515 1516 1515 1514 1514 1514 1514 1512 1511 1510 1510 1507 1503 1501 1499 1495 1492 1489 1485 1482 1478 1475 1474 1473 1470 1468 1464 1459 1455 1450 1446 1441 1436 1432 1428 1424 1421 1417 1413 1410 1408 1407 1406 1404 1404 1403 1402 1402 1401 1400 1400 1401 1401 1402 1402 1403 1404 1405 1406 1408 1410 1413 1416 1419 1420 1422 1425 1427 1429 1433 1437 1440 1442 1444 1447
1519 1518 1520 1523 1518 1513 1514 1515 1515 1515 1515 1514 1514 1513 1513 1513 1513 1512 1511 1510 1509 1507 1504 1502 1500 1497 1493 1491 1488 1484 1481 1478 1475 1473 1471 1469 1466 1463 1459 1455 1450 1446 1441 1436 1433 1428 1424 1420 1416 1412 1409 1406 1405 1404 1403 1402 1401 1401 1401 1401 1400 1399 1399 1400 1401 1401 1402 1402 1403 1405 1407 1409 1411 1413 1416 1417 1418 1420 1423 1425 1429 1432 1436 1439 1441 1443
1519 1519 1520 1521 1519 1515 1514 1514 1514 1515 1516 1515 1513 1512 1512 1513 1513 1512 1510 1509 1508 1506 1503 1501 1499 1496 1492 1489 1487 1483 1480 1477 1474 1472 1469 1467 1465 1462 1458 1454 1450 1446 1442 1437 1432 1428 1424 1420 1415 1411 1408 1404 1402 1401 1401 1400 1400 1399 1400 1400 1400 1399 1398 1399 1399 1400 1400 1400 1402 1403 1405 1407 1409 1411 1413 1414 1414 1415 1418 1422 1425 1429 1432 1434 1436 1438
1518 1518 1518 1520 1520 1517 1513 1512 1514 1514 1514 1512 1510 1508 1509 1511 1511 1510 1509 1508 1506 1505 1505 1503 1500 1497 1493 1489 1486 1482 1479 1476 1474 1472 1469 1467 1464 1461 1458 1454 1450 1446 1442 1437 1433 1428 1424 1420 1415 1411 1407 1404 1401 1399 1399 1398 1398 1397 1398 1398 1399 1399 1398 1398 1398 1399 1399 1400 1401 1402 1403 1405 1407 1409 1410 1411 1410 1411 1414 1418 1422 1424 1427 1429 1431 1434
1518 1517 1518 1520 1519 1515 1511 1511 1512 1511 1508 1506 1505 1505 1506 1508 1509 1509 1509 1507 1504 1503 1504 1503 1500 1496 1493 1489 1486 1483 1480 1477 1474 1472 1470 1468 1464 1461 1458 1454 1450 1445 1441 1437 1432 1428 1423 1419 1414 1409 1405 1402 1400 1399 1398 1397 1396 1396 1396 1396 1397 1397 1397 1397 1397 1397 1398 1399 1399 1400 1401 1403 1404 1406 1407 1408 1408 1409 1412 1415 1418 1420 1422 1424 1426 1429
1517 1517 1520 1522 1519 1514 1512 1511 1508 1505 1504 1503 1504 1504 1504 1504 1506 1507 1506 1503 1501 1501 1501 1500 1498 1495 1491 1489 1486 1483 1480 1477 1474 1472 1470 1468 1464 1460 1457 1453 1449 1445 1440 1435 1431 1426 1422 1417 1412 1407 1403 1400 1399 1398 1397 1396 1395 1393 1393 1394 1395 1395 1395 1396 1396 1396 1396 1397 1398 1399 1400 1400 1401 1402 1404 1405 1405 1406 1409 1412 1413 1415 1417 1419 1422 1424
1514 1515 1518 1519 1517 1515 1515 1514 1508 1504 1503 1504 1504 1503 1503 1503 1504 1505 1504 1500 1499 1500 1500 1499 1496 1493 1490 1487 1485 1482 1479 1475 1473 1472 1470 1467 1464 1460 1456 1452 1449 1445 1440 1435 1430 1425 1421 1416 1411 1407 1403 1399 1397 1397 1396 1395 1393 1392 1391 1392 1392 1393 1393 1393 1394 1394 1395 1395 1396 1397 1398 1399 1400 1400 1401 1402 1402 1403 1406 1408 1409 1411 1413 1415 1417 1419
1511 1513 1515 1515 1515 1516 1518 1516 1510 1504 1502 1503 1503 1501 1502 1503 1503 1504 1505 1501 1498 1498 1498 1497 1494 1491 1489 1486 1484 1480 1477 1473 1470 1469 1467 1465 1463 1459 1456 1453 1449 1445 1441 1436 1431 1426 1421 1415 1411 1407 1402 1398 1396 1395 1395 1394 1392 1390 1390 1390 1390 1390 1391 1391 1392 1392 1393 1394 1395 1396 1396 1397 1398 1399 1399 1399 1400 1400 1402 1403 1405 1407 1410 1411 1413 1415
1509 1511 1512 1513 1515 1518 1517 1514 1511 1506 1500 1501 1503 1500 1500 1501 1500 1502 1504 1501 1497 1496 1496 1494 1492 1490 1488 1485 1483 1479 1475 1472 1470 1467 1465 1464 1461 1458 1454 1451 1448 1445 1441 1436 1431 1425 1419 1414 1410 1406 1401 1397 1395 1393 1392 1392 1391 1389 1388 1388 1388 1388 1388 1388 1389 1390 1391 1392 1393 1394 1395 1395 1396 1396 1397 1397 1397 1398 1399 1400 1402 1404 1406 1408 1410 1412
1509 1510 1512 1513 1514 1517 1516 1514 1514 1509 1499 1499 1502 1499 1498 1499 1499 1501 1503 1500 1495 1494 1493 1492 1491 1489 1487 1484 1482 1479 1476 1474 1472 1468 1465 1463 1460 1457 1453 1450 1447 1444 1440 1436 1431 1426 1420 1415 1410 1406 1402 1397 1393 1390 1389 1389 1389 1388 1386 1386 1385 1385 1385 1385 1385 1386 1387 1388 1389 1391 1392 1392 1393 1393 1394 1395 1395 1396 1396 1397 1399 1401 1403 1405 1407 1409
1509 1510 1512 1513 1513 1516 1517 1515 1513 1506 1499 1499 1500 1497 1497 1497 1497 1501 1501 1496 1492 1492 1492 1491 1490 1488 1486 1484 1482 1480 1478 1476 1474 1470 1466 1464 1461 1458 1455 1451 1447 1443 1439 1434 1431 1426 1421 1415 1410 1406 1401 1397 1393 1390 1388 1387 1386 1386 1385 1384 1383 1382 1382 1381 1381 1382 1383 1383 1384 1385 1387 1388 1389 1390 1391 1392 1393 1394 1394 1395 1396 1398 1400 1401 1403 1405
1511 1512 1514 1514 1512 1514 1516 1513 1508 1502 1497 1497 1497 1495 1496 1496 1497 1500 1498 1492 1490 1491 1490 1490 1489 1487 1486 1484 1482 1480 1478 1477 1474 1471 1467 1464 1460 1457 1455 1451 1448 1444 1440 1435 1431 1426 1421 1416 1412 1408 1404 1400 1396 1392 1389 1387 1385 1384 1383 1381 1380 1379 1379 1378 1378 1378 1378 1379 1379 1380 1382 1383 1384 1386 1387 1388 1390 1391 1392 1393 1394 1395 1397 1398 1400 1401
1511 1513 1514 1513 1512 1514 1516 1514 1509 1502 1495 1494 1494 1494 1495 1496 1496 1495 1493 1490 1490 1490 1488 1488 1487 1486 1485 1483 1481 1479 1477 1475 1473 1470 1466 1463 1460 1457 1453 1450 1446 1443 1439 1435 1431 1426 1421 1417 1412 1408 1405 1401 1398 1394 1391 1388 1386 1384 1381 1380 1378 1377 1376 1375 1374 1374 1374 1374 1375 1376 1377 1378 1379 1381 1382 1384 1386 1387 1388 1390 1391 1392 1393 1395 1396 1397
1504 1507 1509 1509 1509 1513 1517 1515 1508 1498 1492 1491 1493 1493 1493 1493 1492 1490 1489 1489 1489 1488 1487 1487 1485 1484 1483 1482 1480 1478 1476 1473 1472 1469 1466 1463 1460 1457 1453 1450 1446 1442 1437 1433 1429 1425 1421 1417 1413 1409 1405 1402 1398 1395 1391 1388 1385 1383 1380 1378 1376 1374 1373 1372 1371 1370 1370 1370 1370 1371 1372 1373 1375 1376 1377 1379 1381 1382 1384 1386 1388 1389 1390 1391 1392 1393
1501 1501 1503 1505 1505 1506 1509 1505 1497 1491 1490 1491 1491 1490 1490 1489 1488 1488 1488 1488 1487 1486 1486 1485 1484 1483 1482 1480 1478 1476 1474 1472 1470 1468 1465 1462 1459 1456 1453 1450 1447 1443 1438 1433 1429 1425 1421 1417 1414 1411 1406 1402 1398 1394 1390 1387 1384 1381 1379 1377 1374 1372 1370 1369 1368 1367 1366 1366 1366 1367 1368 1369 1370 1371 1373 1375 1377 1378 1380 1381 1383 1385 1386 1388 1388 1389
1497 1496 1496 1498 1499 1499 1497 1493 1490 1488 1489 1489 1488 1488 1488 1487 1487 1487 1487 1486 1486 1485 1484 1483 1482 1481 1480 1479 1477 1475 1473 1471 1469 1467 1464 1462 1459 1456 1453 1450 1447 1443 1439 1435 1431 1426 1422 1418 1415 1411 1406 1401 1397 1393 1389 1385 1382 1380 1377 1375 1373 1370 1368 1366 1365 1363 1363 1362 1362 1363 1363 1364 1365 1367 1368 1370 1372 1373 1375 1377 1378 1380 1381 1383 1384 1385
1494 1494 1494 1494 1495 1494 1490 1487 1487 1487 1487 1487 1487 1487 1486 1486 1486 1485 1485 1485 1484 1484 1483 1482 1481 1480 1479 1478 1476 1474 1472 1470 1468 1466 1464 1461 1459 1456 1453 1450 1447 1443 1439 1435 1431 1427 1423 1419 1415 1411 1405 1400 1396 1392 1388 1385 1382 1379 1376 1374 1371 1369 1366 1363 1361 1360 1359 1358 1357 1358 1358 1359 1360 1362 1364 1365 1367 1369 1370 1373 1374 1375 1377 1378 1379 1380
1493 1494 1494 1493 1494 1494 1490 1486 1485 1486 1485 1485 1486 1485 1485 1485 1484 1484 1484 1483 1483 1482 1482 1481 1480 1479 1478 1476 1474 1473 1471 1469 1467 1465 1463 1461 1458 1455 1452 1449 1446 1443 1440 1436 1432 1428 1424 1419 1415 1410 1406 1401 1396 1392 1389 1386 1382 1379 1376 1372 1369 1366 1363 1360 1358 1355 1353 1352 1351 1351 1352 1352 1354 1356 1358 1361 1363 1364 1366 1368 1370 1371 1372 1373 1374 1376
1493 1493 1493 1492 1492 1492 1489 1485 1484 1484 1484 1484 1484 1484 1483 1483 1483 1482 1482 1482 1481 1481 1481 1480 1479 1477 1476 1475 1473 1472 1470 1468 1466 1464 1462 1460 1458 1455 1452 1449 1446 1443 1440 1437 1433 1429 1424 1420 1416 1412 1408 1403 1399 1395 1391 1387 1383 1379 1375 1371 1368 1364 1360 1357 1354 1351 1348 1345 1344 1343 1344 1346 1347 1350 1352 1355 1357 1359 1361 1363 1365 1366 1367 1369 1370 1371
1492 1492 1491 1491 1490 1489 1487 1484 1483 1483 1482 1481 1482 1482 1481 1481 1481 1481 1481 1481 1480 1480 1479 1479 1478 1476 1475 1473 1472 1470 1469 1467 1465 1463 1462 1459 1457 1455 1452 1449 1446 1443 1440 1437 1434 1430 1426 1422 1418 1414 1410 1405 1401 1396 1392 1388 1384 1380 1376 1372 1368 1363 1359 1354 1351 1347 1343 1339 1336 1335 1336 1338 1340 1343 1346 1349 1352 1355 1357 1359 1360 1361 1363 1365 1367 1368
1491 1490 1489 1490 1490 1488 1485 1482 1481 1481 1480 1479 1479 1480 1480 1480 1480 1480 1479 1479 1479 1479 1478 1477 1476 1475 1474 1472 1470 1469 1468 1466 1464 1463 1461 1459 1457 1455 1452 1449 1447 1444 1441 1437 1434 1431 1427 1424 1420 1416 1411 1407 1403 1398 1393 1389 1385 1380 1376 1373 1368 1364 1359 1353 1348 1343 1338 1333 1328 1326 1327 1330 1333 1335 1339 1342 1346 1349 1351 1354 1356 1358 1360 1362 1363 1364
1486 1485 1485 1486 1486 1483 1480 1479 1479 1479 1478 1477 1478 1479 1478 1478 1479 1479 1479 1479 1478 1477 1477 1476 1474 1473 1472 1471 1469 1468 1467 1465 1463 1462 1461 1459 1457 1455 1452 1449 1446 1444 1441 1438 1434 1431 1427 1424 1420 1416 1412 1408 1404 1400 1395 1390 1385 1380 1376 1372 1367 1363 1358 1352 1346 1339 1333 1327 1322 1320 1321 1324 1326 1329 1333 1336 1340 1344 1346 1349 1352 1355 1357 1359 1360 1361